Weather History for KCKP - March, 2014

Change the Weather History Date:

Sunday, March 30, 2014

  Actual Average Record
Temperature  
Mean Temperature 55 °F -  
Max Temperature 71 °F 49 °F 86 °F (1986)
Min Temperature 39 °F 28 °F 0 °F (1969)
Degree Days  
Heating Degree Days 10    
Growing Degree Days 5 (Base 50)    
Moisture  
Dew Point 33 °F    
Average Humidity 47    
Maximum Humidity 67    
Minimum Humidity 25    
Precipitation  
Precipitation 0.00 in - - ()
Sea Level Pressure  
Sea Level Pressure 29.81 in    
Wind  
Wind Speed 15 mph (South)    
Max Wind Speed 22 mph    
Max Gust Speed 31 mph    
Visibility 9 miles    
Events      
Averages and records for this station are not official NWS values.
T = Trace of Precipitation, MM = Missing Value Source: NWS Daily Summary

Daily Weather History Graph

Daily Weather History Graph

Search for Another Location

Airport or City:

Trip Planner

Search our weather history database for the weather conditions in past years. The results will help you decide how hot, cold, wet, or windy it might be!

Date:

Astronomy

Mar. 30, 2014 Rise Set
Actual Time 7:07 AM CDT 7:46 PM CDT
Civil Twilight 6:39 AM CDT 8:14 PM CDT
Nautical Twilight 6:05 AM CDT 8:48 PM CDT
Astronomical Twilight 5:31 AM CDT 9:23 PM CDT
Moon 6:54 AM CDT (3/30) 8:00 PM CDT (3/30)
Length of Visible Light 13h 35m
Length of Day
12h 38m
Waning Crescent, 0% of the Moon is Illuminated
Mar 30
Waning Crescent
Mar 30
New
Apr 7
First Quarter
Apr 15
Full
Apr 22
Last Quarter

Hourly Weather History & Observations

Time (CDT) Temp. Windchill Dew Point Humidity Pressure Visibility Wind Dir Wind Speed Gust Speed Precip Events Conditions
12:15 AM 39.0 °F 31.8 °F 28.8 °F 67% 29.99 in 10.0 mi South 11.5 mph - N/A   Clear
12:35 AM 40.6 °F 32.7 °F 29.3 °F 64% 29.98 in 10.0 mi South 15.0 mph 20.7 mph N/A   Clear
12:55 AM 42.1 °F 33.9 °F 29.3 °F 61% 29.98 in 10.0 mi South 17.3 mph 23.0 mph N/A   Clear
1:15 AM 42.1 °F 34.2 °F 29.3 °F 61% 29.97 in 10.0 mi South 16.1 mph 21.9 mph N/A   Clear
1:35 AM 41.9 °F 34.6 °F 29.5 °F 61% 29.97 in 10.0 mi South 13.8 mph - N/A   Clear
1:55 AM 41.5 °F 34.2 °F 29.7 °F 63% 29.96 in 10.0 mi South 13.8 mph - N/A   Clear
2:15 AM 42.1 °F 34.2 °F 29.7 °F 61% 29.95 in 10.0 mi South 16.1 mph - N/A   Clear
2:35 AM 42.1 °F 34.2 °F 29.8 °F 62% 29.94 in 10.0 mi South 16.1 mph 19.6 mph N/A   Clear
2:55 AM 41.9 °F 34.3 °F 30.0 °F 63% 29.94 in 10.0 mi South 15.0 mph - N/A   Clear
3:15 AM 41.9 °F 34.0 °F 30.0 °F 63% 29.93 in 10.0 mi South 16.1 mph 21.9 mph N/A   Clear
3:35 AM 41.9 °F 34.0 °F 30.0 °F 63% 29.92 in 10.0 mi South 16.1 mph 23.0 mph N/A   Clear
3:55 AM 41.9 °F 34.0 °F 30.2 °F 63% 29.92 in 10.0 mi South 16.1 mph 23.0 mph N/A   Clear
4:15 AM 41.9 °F 34.6 °F 30.2 °F 63% 29.92 in 10.0 mi South 13.8 mph - N/A   Clear
4:35 AM 41.4 °F 34.0 °F 30.2 °F 65% 29.91 in 10.0 mi South 13.8 mph - N/A   Clear
4:55 AM 41.5 °F 34.2 °F 30.2 °F 64% 29.90 in 10.0 mi South 13.8 mph - N/A   Clear
5:15 AM 41.4 °F 34.0 °F 30.2 °F 65% 29.90 in 10.0 mi South 13.8 mph - N/A   Clear
5:35 AM 41.2 °F 33.7 °F 30.2 °F 65% 29.89 in 10.0 mi South 13.8 mph - N/A   Clear
5:55 AM 41.4 °F 34.3 °F 30.6 °F 65% 29.89 in 10.0 mi South 12.7 mph - N/A   Clear
6:15 AM 41.5 °F 34.2 °F 30.7 °F 65% 29.88 in 7.0 mi South 13.8 mph 18.4 mph N/A   Clear
6:35 AM 41.9 °F 34.6 °F 30.6 °F 64% 29.88 in 7.0 mi South 13.8 mph - N/A   Clear
6:55 AM 41.9 °F 34.3 °F 30.6 °F 64% 29.89 in 7.0 mi South 15.0 mph 18.4 mph N/A   Clear
7:15 AM 41.4 °F 33.6 °F 30.7 °F 66% 29.89 in 7.0 mi South 15.0 mph - N/A   Clear
7:35 AM 41.2 °F 34.1 °F 30.7 °F 66% 29.89 in 7.0 mi South 12.7 mph - N/A   Clear
7:55 AM 41.4 °F 33.6 °F 30.9 °F 66% 29.89 in 7.0 mi South 15.0 mph - N/A   Clear
8:15 AM 42.1 °F 34.5 °F 31.1 °F 65% 29.89 in 7.0 mi South 15.0 mph - N/A   Clear
8:35 AM 43.7 °F 36.9 °F 31.8 °F 63% 29.88 in 7.0 mi South 13.8 mph 24.2 mph N/A   Clear
8:55 AM 45.7 °F 39.8 °F 32.0 °F 59% 29.88 in 7.0 mi SSW 12.7 mph 21.9 mph N/A   Clear
9:15 AM 47.3 °F - 32.0 °F 55% 29.87 in 7.0 mi SSW 18.4 mph 23.0 mph N/A   Clear
9:35 AM 48.7 °F - 32.5 °F 54% 29.89 in 7.0 mi SSW 15.0 mph 18.4 mph N/A   Clear
9:55 AM 50.2 °F - 32.9 °F 52% 29.88 in 7.0 mi SSW 18.4 mph 26.5 mph N/A   Clear
10:15 AM 52.2 °F - 33.1 °F 48% 29.88 in 7.0 mi SSW 16.1 mph 24.2 mph N/A   Clear
10:35 AM 54.0 °F - 33.3 °F 46% 29.87 in 7.0 mi SSW 18.4 mph 24.2 mph N/A   Clear
10:55 AM 55.4 °F - 33.4 °F 43% 29.86 in 7.0 mi South 19.6 mph 26.5 mph N/A   Clear
11:15 AM 56.3 °F - 33.8 °F 43% 29.86 in 10.0 mi SSW 16.1 mph 24.2 mph N/A   Clear
11:35 AM 59.9 °F - 32.5 °F 36% 29.85 in 10.0 mi SSW 18.4 mph 31.1 mph N/A   Clear
11:55 AM 61.7 °F - 33.1 °F 34% 29.84 in 10.0 mi SW 19.6 mph 28.8 mph N/A   Clear
12:10 PM 61.0 °F - 33.1 °F 35% 29.84 in 10.0 mi SW 21.9 mph 26.5 mph N/A   Clear
12:35 PM 63.3 °F - 33.8 °F 33% 29.83 in 7.0 mi SSW 18.4 mph 24.2 mph N/A   Clear
12:55 PM 63.1 °F - 34.0 °F 34% 29.82 in 10.0 mi SSW 17.3 mph 23.0 mph N/A   Clear
1:15 PM 63.9 °F - 34.2 °F 33% 29.81 in 10.0 mi South 18.4 mph 23.0 mph N/A   Clear
1:35 PM 63.7 °F - 34.0 °F 33% 29.81 in 10.0 mi South 13.8 mph 25.3 mph N/A   Clear
1:55 PM 64.6 °F - 34.5 °F 33% 29.79 in 10.0 mi SSW 17.3 mph 20.7 mph N/A   Clear
2:15 PM 67.3 °F - 34.7 °F 30% 29.77 in 10.0 mi SSW 17.3 mph - N/A   Clear
2:35 PM 67.5 °F - 34.5 °F 30% 29.77 in 10.0 mi SSW 15.0 mph 21.9 mph N/A   Clear
2:55 PM 66.4 °F - 34.2 °F 30% 29.76 in 10.0 mi South 15.0 mph 19.6 mph N/A   Clear
3:15 PM 66.2 °F - 34.0 °F 30% 29.75 in 10.0 mi South 18.4 mph 26.5 mph N/A   Clear
3:35 PM 67.5 °F - 34.0 °F 29% 29.74 in 10.0 mi South 15.0 mph 20.7 mph N/A   Clear
3:55 PM 69.8 °F - 34.2 °F 27% 29.74 in 10.0 mi South 21.9 mph 25.3 mph N/A   Clear
4:15 PM 69.6 °F - 34.0 °F 27% 29.73 in 10.0 mi SSW 21.9 mph 25.3 mph N/A   Clear
4:35 PM 70.0 °F - 34.0 °F 27% 29.72 in 10.0 mi South 15.0 mph - N/A   Clear
4:55 PM 71.6 °F - 34.3 °F 25% 29.71 in 10.0 mi South 15.0 mph 18.4 mph N/A   Clear
5:15 PM 71.4 °F - 33.3 °F 25% 29.70 in 10.0 mi SSW 16.1 mph 19.6 mph N/A   Clear
5:35 PM 70.9 °F - 33.1 °F 25% 29.68 in 10.0 mi South 15.0 mph - N/A   Clear
5:55 PM 70.5 °F - 34.0 °F 26% 29.69 in 10.0 mi South 12.7 mph 17.3 mph N/A   Clear
6:15 PM 70.9 °F - 34.0 °F 26% 29.69 in 10.0 mi South 13.8 mph 17.3 mph N/A   Clear
6:35 PM 70.9 °F - 34.0 °F 26% 29.68 in 10.0 mi SSW 15.0 mph - N/A   Clear
6:55 PM 69.4 °F - 34.2 °F 27% 29.68 in 10.0 mi South 8.1 mph - N/A   Clear
7:15 PM 67.1 °F - 34.9 °F 30% 29.68 in 10.0 mi South 9.2 mph - N/A   Clear
7:35 PM 63.3 °F - 35.1 °F 35% 29.67 in 10.0 mi South 6.9 mph - N/A   Clear
7:55 PM 60.8 °F - 34.9 °F 38% 29.67 in 10.0 mi South 5.8 mph - N/A   Clear
8:15 PM 60.4 °F - 34.7 °F 38% 29.67 in 10.0 mi SSE 5.8 mph - N/A   Clear
8:35 PM 59.0 °F - 35.6 °F 42% 29.67 in 10.0 mi SSE 6.9 mph - N/A   Clear
8:55 PM 57.9 °F - 36.0 °F 44% 29.68 in 10.0 mi South 5.8 mph - N/A   Clear
9:15 PM 57.0 °F - 36.5 °F 46% 29.68 in 10.0 mi South 6.9 mph - N/A   Clear
9:35 PM 55.6 °F - 37.0 °F 50% 29.68 in 10.0 mi SSW 5.8 mph - N/A   Clear
9:55 PM 58.1 °F - 36.3 °F 44% 29.68 in 10.0 mi SSE 12.7 mph 20.7 mph N/A   Clear
10:15 PM 58.6 °F - 36.1 °F 43% 29.67 in 10.0 mi SSE 13.8 mph - N/A   Clear
10:35 PM 58.1 °F - 36.1 °F 44% 29.67 in 10.0 mi SSE 16.1 mph 20.7 mph N/A   Clear
10:55 PM 57.4 °F - 36.1 °F 45% 29.66 in 10.0 mi SSE 12.7 mph 16.1 mph N/A   Clear
11:15 PM 56.8 °F - 36.5 °F 47% 29.65 in 10.0 mi SSE 13.8 mph 20.7 mph N/A   Clear
11:35 PM 55.9 °F - 36.5 °F 48% 29.65 in 10.0 mi South 11.5 mph - N/A   Clear
11:55 PM 55.6 °F - 36.5 °F 49% 29.65 in 10.0 mi SSE 15.0 mph - N/A   Clear